Weather in Tataurovo

Russia / Republic of Buryatia     52°08′26″N   107°26′18″E
temp.,
°C
wind,
m/s
gust,
m/s
humid.,
%
clouds,
%
prec.,
mm/h
press.,
hPa
HPBL,
m
8 march, mon
mon823:00−10se019667 0.0 101721
02:00−9sw119383 0.0 101821
05:00−10wnw119197 0.0 101822
08:00−11wnw119267 0.0 102224
11:00−3sw129143 0.2 1022358
14:00−3nw487769 0.8 10241123
17:00−4wnw387886 0.1 10251009
20:00−11wnw129347 0.1 102821
9 march, tue
tue923:00−13nnw119235 0.0 102821
02:00−14ne119450 0.0 102720
05:00−14ene119340 0.0 102420
08:00−13e019330 0.0 102321
11:00−5sse148521 0.0 1019393
14:00−2s228343 0.0 1017507
17:00−2wsw238898 0.0 1019433
20:00−9wsw129699 0.0 102321
10 march, wed
wed1023:00−10wsw229556 0.0 102522
02:00−10w129543 0.0 102724
05:00−11w119786 0.1 102921
08:00−12w119279 0.1 103121
11:00−4s117610 0.0 1029328
14:00−1sse127422 0.0 1026563
17:00−1sse14763 0.0 1024582
20:00−8nne11882 0.0 102521
11 march, thu
thu1123:00−9ne11890 0.0 102521
02:00−10ne019121 0.0 102521
05:00−11ene019442 0.0 102521
08:00−11se019641 0.0 102621
11:00−4sse128963 0.0 1024290
14:00−1sse238654 0.0 1021418
17:000sse158517 0.0 1020532
20:00−6e11929 0.0 102221
12 march, fri
fri1223:00−7ene119113 0.0 102221
02:00−8e119220 0.0 102021
05:00−9ese11900 0.0 102021
08:00−9ne01900 0.0 101922
11:00−2sw137879 0.0 1018308
14:00−2wsw498289 0.0 1018730
17:00−3w3690100 0.1 1020534
20:00−8w1196100 0.2 102321